Location: Oberwangen
(47.4286°N, 8.9679°E)
Time: 21:29:55
(UTC+00:00)

Cosmos 1354 Rocket - Pass Details

Date: 20 June 2021
Orbit: 764 x 783 km, 74.0° (Epoch: 23 July)

Event Time Altitude Azimuth Distance (km) Brightness Sun altitude
Rises 21:44:09 0° 339° (NNW) 3,283 9.2 -15.5°
Reaches altitude 10° 21:46:35 10° 342° (NNW) 2,351 7.9 -15.7°
Maximum altitude 21:51:55 68° 66° (ENE) 843 4.2 -16.0°
Enters shadow 21:54:58 26° 143° (SE) 1,515 5.0 -16.2°
